Home > Weather > Shiprock > Past weeks

Flag for USA Weather for the Past 2 Weeks in Shiprock, New Mexico, USA

Now
44 °F

Overcast.


Feels Like: 44 °F
Forecast: 42 / 55 °F
Wind: No wind

Location: Four Corners Regional Airport

Current Time: May 1, 2016 at 12:58:47 AM

Latest Report: Apr 30, 2016 at 11:53 PM


Visibility: 10 mi

Pressure: 29.83 "Hg (24.86 "Hg at 1492m altitude)

Humidity: 63%

Dew Point: 32 °F

Location of ShiprockLocation

Historic Weather in Shiprock — Graph

°F

Shiprock Temperature Yesterday

Maximum temperature yesterday: 61 °F (at 3:53 PM)
Minimum temperature yesterday: 33 °F (at 6:53 AM)
Average temperature yesterday: 47 °F

High & Low Weather Summary for the Past Weeks

 TemperatureHumidityPressure
High81 °F (Apr 22, 2:53 PM)97% (Apr 16, 12:53 AM)30.21 "Hg (Apr 16, 12:53 AM)
Low28 °F (Apr 19, 5:53 AM)6% (Apr 22, 5:53 PM)29.46 "Hg (Apr 25, 2:53 PM)
Average51 °F46%29.87 "Hg
* Reported Apr 15 10:53 PM — Apr 30 10:53 PM, Shiprock, Weather by CustomWeather, © 2016

Note: Actual official high and low records may vary slightly from our data, if they occured in-between our weather recording intervals... More about our weather records

Advertising

Shiprock Weather History for the Previous 24 Hours

Scroll right to see more
 ConditionsComfort  
Time TempWeatherWind HumidityBarometerVisibility
10:53 PM
Sat, Apr 30
45 °FClear.3 mph63%29.81 "Hg10 mi
9:53 PM46 °FClear.5 mph61%29.82 "Hg10 mi
8:53 PM47 °FSunny.3 mph56%29.82 "Hg10 mi
7:53 PM50 °FSunny.12 mph50%29.80 "Hg10 mi
6:53 PM52 °FSunny.15 mph45%29.80 "Hg10 mi
5:53 PM54 °FSunny.20 mph43%29.79 "Hg10 mi
4:53 PM55 °FPassing clouds.21 mph45%29.78 "Hg10 mi
3:53 PM61 °FPartly sunny.17 mph26%29.74 "Hg10 mi
2:53 PM59 °FPartly sunny.N/A31%29.75 "Hg10 mi
1:53 PM58 °FOvercast.14 mph33%29.76 "Hg10 mi
12:53 PM60 °FScattered clouds.6 mph27%29.75 "Hg10 mi
11:53 AM54 °FBroken clouds.No wind38%29.80 "Hg10 mi
10:53 AM54 °FScattered clouds.7 mph43%29.81 "Hg10 mi
9:53 AM49 °FPassing clouds.5 mph55%29.82 "Hg10 mi
8:53 AM44 °FSunny.No wind65%29.83 "Hg10 mi
7:53 AM39 °FSunny.No wind73%29.82 "Hg10 mi
6:53 AM33 °FClear.3 mph78%29.81 "Hg10 mi
5:53 AM36 °FClear.No wind79%29.78 "Hg10 mi
4:53 AM34 °FPassing clouds.No wind82%29.79 "Hg10 mi
3:53 AM37 °FClear.No wind82%29.77 "Hg10 mi
2:53 AM37 °FClear.5 mph82%29.78 "Hg10 mi
1:53 AM38 °FClear.5 mph76%29.80 "Hg10 mi
12:53 AM41 °FClear.No wind70%29.78 "Hg10 mi
Weather by CustomWeather, © 2016

See weather overviewHow to use our weather pages